Regional Weather Roundup
Issued by NWS Jackson, KY

Home | Current Version | Previous Version | Text Only | Print | Product List | Glossary Off
Versions: 1 2 3 4 5 6 7 8 9 10 11 12 13 14 15 16 17 18 19 20 21 22 23 24 25 26

000
ASUS43 KJKL 251810
RWRJKL

EAST KENTUCKY HOURLY WEATHER ROUNDUP
NATIONAL WEATHER SERVICE JACKSON KY
200 PM EDT WED MAY 25 2016

NOTE: "FAIR" INDICATES FEW OR NO CLOUDS BELOW 12,000 FEET WITH
NO SIGNIFICANT WEATHER AND/OR OBSTRUCTIONS TO VISIBILITY.

* THESE REPORTS ARE NOT UNDER NWS QUALITY CONTROL AND MAY NOT
  REPORT WEATHER SUCH AS PRECIPITATION AND FOG.

KYZ079-080-083-085-087-088-110-112-115-119-120-251900
...EASTERN KENTUCKY...

CITY           SKY/WX    TMP DP  RH WIND       PRES   REMARKS
JACKSON        PTSUNNY   80  59  48 CALM      30.21R
6HR MIN TEMP:  63; 6HR MAX TEMP:  83;

LONDON         MOSUNNY   80  58  46 SW12      30.19F
6HR MIN TEMP:  61; 6HR MAX TEMP:  82; 6HR PCP: TRACE;

SOMERSET*      CLOUDY    77  59  53 W14       30.20S
MONTICELLO*    PTSUNNY   80  62  54 W20G26    30.20S
6HR MIN TEMP:  64; 6HR MAX TEMP:  81; 6HR PCP: TRACE;

WILLIAMSBURG*  CLEAR     77  61  57 SW7       30.21S
MIDDLESBORO*   SUNNY     79  59  50 S6        30.22F
6HR MIN TEMP:  55; 6HR MAX TEMP:  80;

HARLAN APT*      N/A     81  54  39 SW6       30.22F
HAZARD APT*    MOCLDY    81  59  47 SW12      30.20F
BLACK MTN*       N/A     72  57  60 W1          N/A
PIKE CO APT*     N/A     81  57  43 S3        30.20F
BIG SANDY APT* PTCLDY    84  58  42 SW7       30.19S
6HR MIN TEMP:  62; 6HR MAX TEMP:  84;

MOREHEAD APT*  PTCLDY    79  61  53 S6        30.19F
ASHLAND*       MOSUNNY   81  63  54 SW8       30.15R
$$

KYZ035-036-041-042-044-050-067-078-099-251900
...CENTRAL KENTUCKY...

CITY           SKY/WX    TMP DP  RH WIND       PRES   REMARKS
MT STERLING*   CLOUDY    79  63  57 SW8       30.18F
FLEMING/MASON* CLOUDY   N/A N/A N/A S8        30.17F
DANVILLE*      SUNNY     82  61  47 SW15      30.17F
RICHMOND*      MOSUNNY   81  61  50 S14G21    30.16F
LEXINGTON      CLOUDY    82  62  50 SW14      30.15F
6HR MIN TEMP:  64; 6HR MAX TEMP:  82;

FRANKFORT      CLOUDY    83  62  49 S12G18    30.12F
6HR MIN TEMP:  65; 6HR MAX TEMP:  83;

LOUISVILLE     CLOUDY    81  63  54 SW12G18   30.10F
6HR MIN TEMP:  68; 6HR MAX TEMP:  81; 6HR PCP: TRACE;

LEBANON*         N/A     79  63  57 S13       30.15F
GLASGOW*       CLOUDY    79  61  54 SW5       30.15F
BOWLING GREEN  CLOUDY    78  63  59 S12       30.14S
6HR MIN TEMP:  69; 6HR MAX TEMP:  80; 6HR PCP: TRACE;

$$

KYZ091>093-OHZ055-061-077-WVZ005-015-034-035-042-251900
...SOUTHERN OHIO/WEST VIRGINIA...

CITY           SKY/WX    TMP DP  RH WIND       PRES   REMARKS
COVINGTON      CLOUDY    77  61  57 SW12      30.12F
COLUMBUS       CLOUDY    78  55  44 S9        30.14S
DAYTON         CLOUDY    80  59  48 S13       30.12F
WILMINGTON     CLOUDY    76  58  53 S10       30.14F
HUNTINGTON       N/A     83  59  44 CALM      30.17S
CHARLESTON       N/A     83  53  35 SW9       30.17F
PINEVILLE*       N/A     83  47  28 MISG      30.26F
BECKLEY          N/A     76  51  41 NW7       30.25F
BLUEFIELD        N/A     74  50  42 SW6       30.27F
LOGAN CO APT*    N/A     81  55  41 VRB5      30.20F
$$

VAZ002-007-008-TNZ017-027-036-066-071-251900
...SOUTHWEST VIRGINIA/EAST TENNESSEE...

CITY           SKY/WX    TMP DP  RH WIND       PRES   REMARKS
WISE*            N/A     77  46  33 SW14      30.28F
JONESVILLE*      N/A     82  55  39 SW9       30.24F
ABINGDON*        N/A     80  55  41 W12       30.26S
BRISTOL        MOSUNNY   81  56  42 SW10      30.23F
SEVIERVILLE*     N/A     82  57  42 W9        30.20S
KNOXVILLE      PTSUNNY   82  54  37 SW15      30.21F
OAK RIDGE      MOSUNNY   80  58  46 VRB6      30.23F
CROSSVILLE     CLOUDY    76  59  55 CALM      30.25F
NASHVILLE      CLOUDY    82  62  50 S9        30.15F
$$

...KEY TO REMARKS...
VSB - VISIBILITY IN MILES
WCI - WIND CHILL INDEX
HX  - HEAT INDEX

$$




USA.gov is the U.S. government's official web portal to all federal, state and local government web resources and services.